Location: Beaver Brook Station
(42.3793°N, 71.2203°W)
Time: 07:16:47
(UTC+00:00)

Envisat - Pass Details

Date: 29 October 2020
Orbit: 764 x 766 km, 98.1° (Epoch: 23 November)

Event Time Altitude Azimuth Distance (km) Brightness Sun altitude
Rises 22:00:36 0° 171° (S) 3,218 6.3 -4.2°
Reaches altitude 10° 22:02:54 10° 174° (S) 2,296 5.6 -4.6°
Maximum altitude 22:07:57 70° 258° (WSW) 814 3.4 -5.6°
Drops below altitude 10° 22:13:02 10° 343° (NNW) 2,312 5.6 -6.5°
Sets 22:15:22 0° 345° (NNW) 3,242 6.3 -6.9°
